Location: São Paulo
(23.5507°S, 46.6334°W)
Time: 06:55:03
(UTC-03:00)

Explorer 7 - Pass Details

Date: 22 February 2026
Orbit: 430 x 541 km, 50.2° (Epoch: 10 March)

Event Time Altitude Azimuth Distance (km) Brightness Sun altitude
Rises 08:06:05 0° 209° (SSW) 2,555 10.0 28.2°
Reaches altitude 10° 08:08:34 10° 196° (SSW) 1,647 9.2 28.8°
Maximum altitude 08:11:42 25° 138° (SE) 964 8.9 29.5°
Drops below altitude 10° 08:14:44 10° 80° (E) 1,582 10.7 30.2°
Sets 08:17:03 0° 66° (ENE) 2,430 11.1 30.7°
